Location: Unspecified
(0.0000°N, 0.0000°E)
Time: 09:57:34
(UTC+02:00)

NATO 3D Rocket - Visible Passes

Search period start: 25 August 2016 00:00
Search period end: 04 September 2016 00:00
Orbit: 670 x 2296 km, 21.5° (Epoch: 24 August)

Date Brightness Start Highest point End Pass type
(mag) Time Alt. Az. Time Alt. Az. Time Alt. Az.
25 Aug 6.6 04:45:42 10° E 04:45:42 10° E 04:45:46 10° E visible
25 Aug 3.9 06:41:17 31° WNW 06:44:16 86° SSW 06:52:09 10° ESE visible
25 Aug 6.3 21:21:11 10° WNW 21:29:35 28° NNW 21:35:53 10° NNE visible
26 Aug 4.3 05:48:16 55° ENE 05:48:16 55° ENE 05:53:45 10° ESE visible
26 Aug 6.3 20:20:58 10° W 20:31:42 39° NNW 20:39:31 10° NE visible
26 Aug 6.3 22:31:57 10° NW 22:36:44 16° NNW 22:38:40 14° N visible
27 Aug 6.5 04:55:13 12° E 04:55:13 12° E 04:55:36 10° E visible
27 Aug 4.1 06:50:48 29° W 06:53:33 53° SSW 07:00:50 10° SE visible
27 Aug 6.4 21:31:19 10° WNW 21:38:52 22° NNW 21:44:45 10° NNE visible
28 Aug 4.2 05:57:44 52° SE 05:57:44 52° SE 06:02:45 10° ESE visible
28 Aug 6.5 20:30:47 10° WNW 20:40:47 30° NNW 20:48:23 10° NE visible
28 Aug 6.5 22:42:17 10° NW 22:46:24 14° NNW 22:47:29 14° N visible
29 Aug 6.4 05:04:37 12° ESE 05:04:37 12° ESE 05:04:59 10° ESE visible
29 Aug 4.8 07:00:11 21° WSW 07:03:01 32° SSW 07:09:15 10° SE visible
29 Aug 6.5 21:41:34 10° NW 21:48:22 19° NNW 21:53:51 10° NNE visible
30 Aug 4.6 06:07:03 35° SSE 06:07:03 35° SSE 06:11:26 10° SE visible
30 Aug 6.6 20:40:52 10° WNW 20:50:06 25° NNW 20:57:21 10° NE visible
30 Aug 6.6 22:51:56 10° NW 22:56:08 14° N 22:56:08 14° N visible
31 Aug 6.3 05:13:52 11° SE 05:13:52 11° SE 05:14:00 10° ESE visible
31 Aug 5.3 07:09:26 13° SW 07:12:38 20° S 07:17:26 10° SE visible
31 Aug 6.5 21:51:34 10° NW 21:58:04 18° N 22:02:38 12° NNE visible
01 Sep 5.1 06:16:14 22° S 06:16:14 22° S 06:19:49 10° SE visible
01 Sep 6.6 20:50:58 10° WNW 20:59:39 22° NNW 21:06:37 10° NE visible
01 Sep 6.6 23:00:50 10° NW 23:04:39 16° NNW 23:04:39 16° NNW visible
02 Sep 5.6 07:19:45 10° SW 07:22:22 13° S 07:25:18 10° SSE visible
02 Sep 6.4 22:01:02 10° NW 22:07:54 19° N 22:11:06 16° NNE visible
03 Sep 5.5 06:25:16 14° S 06:25:16 14° S 06:27:48 10° SSE visible
03 Sep 6.6 21:00:47 10° NW 21:09:22 22° N 21:16:20 10° NE visible
03 Sep 6.6 23:09:16 10° NW 23:13:05 18° NNW 23:13:05 18° NNW visible
